NOZ84R ENGM-LGSA

Flight info

Callsign NOZ84R
Flight time N/A
Altitude 35000
Route OKSAT L996 KELIN DCT POKEN DCT XIDNA DCT BILNA DCT PARAK DCT IBISI DCT MAKED DCT ATV UP169 MANOK L612 RUSOS
Aircraft B738/M-SDE2E3FGHIRWXY/LB1

Departure

Time 2026-05-08 06:35
Airport Oslo-Gardermoen International Airport (ENGM)

Arrival

Time N/A
Airport Chania International Airport (LGSA)
Time Latitude Longitude Altitude Speed Heading
2026-05-08 06:12 60.19404 11.10832 678 ft 0 kts 197°
2026-05-08 06:27 60.19424 11.10844 682 ft 4 kts 197°
2026-05-08 06:27 60.19445 11.10857 678 ft 4 kts 191°
2026-05-08 06:28 60.19468 11.10854 680 ft 4 kts 138°
2026-05-08 06:28 60.19479 11.10814 682 ft 4 kts 106°
2026-05-08 06:28 60.19486 11.10762 682 ft 4 kts 106°
2026-05-08 06:28 60.19489 11.10742 680 ft 1 kts 106°
2026-05-08 06:31 60.19488 11.10749 680 ft 2 kts 106°
2026-05-08 06:31 60.19476 11.10832 676 ft 10 kts 106°
2026-05-08 06:31 60.19452 11.11000 682 ft 13 kts 106°
2026-05-08 06:31 60.19427 11.11172 682 ft 13 kts 106°
2026-05-08 06:32 60.19461 11.11305 681 ft 13 kts 16°
2026-05-08 06:32 60.19573 11.11369 679 ft 20 kts 16°
2026-05-08 06:32 60.19708 11.11448 681 ft 21 kts 16°
2026-05-08 06:32 60.19844 11.11527 684 ft 20 kts 16°
2026-05-08 06:33 60.19975 11.11604 685 ft 19 kts 16°
2026-05-08 06:33 60.20102 11.11678 686 ft 19 kts 16°
2026-05-08 06:33 60.20174 11.11796 685 ft 13 kts 96°
2026-05-08 06:33 60.20148 11.11975 684 ft 13 kts 105°
2026-05-08 06:34 60.20117 11.12146 682 ft 13 kts 125°
2026-05-08 06:34 60.20039 11.12202 688 ft 13 kts 194°
2026-05-08 06:34 60.19967 11.12159 687 ft 10 kts 196°
2026-05-08 06:34 60.19799 11.12062 685 ft 54 kts 196°
2026-05-08 06:35 60.19212 11.11723 682 ft 119 kts 196°
2026-05-08 06:35 60.18231 11.11160 688 ft 172 kts 195°
2026-05-08 06:35 60.17022 11.10452 1185 ft 187 kts 197°
2026-05-08 06:35 60.15746 11.09678 1878 ft 193 kts 196°
2026-05-08 06:36 60.14428 11.09053 2453 ft 200 kts 186°
2026-05-08 06:36 60.13031 11.09642 2716 ft 221 kts 152°
2026-05-08 06:36 60.11719 11.11426 3173 ft 240 kts 138°
2026-05-08 06:36 60.10572 11.13973 3831 ft 249 kts 134°
2026-05-08 06:37 60.09397 11.16575 4606 ft 253 kts 135°
2026-05-08 06:37 60.08194 11.19164 5401 ft 256 kts 136°
2026-05-08 06:37 60.06819 11.21441 6119 ft 257 kts 159°
2026-05-08 06:37 60.05102 11.22415 6907 ft 258 kts 169°
2026-05-08 06:38 60.03340 11.23202 7623 ft 261 kts 169°
2026-05-08 06:38 60.01555 11.23992 8357 ft 264 kts 169°
2026-05-08 06:38 59.99753 11.24805 9084 ft 267 kts 169°
2026-05-08 06:38 59.97928 11.25640 9811 ft 271 kts 168°
2026-05-08 06:39 59.96111 11.26484 10486 ft 274 kts 168°
2026-05-08 06:39 59.94161 11.27397 10714 ft 295 kts 168°
2026-05-08 06:39 59.92115 11.28360 10886 ft 316 kts 168°
2026-05-08 06:39 59.89906 11.29408 11120 ft 333 kts 168°
2026-05-08 06:40 59.87622 11.30499 11657 ft 340 kts 168°
2026-05-08 06:40 59.85306 11.31608 12330 ft 343 kts 168°
2026-05-08 06:40 59.82973 11.32729 12989 ft 347 kts 168°
2026-05-08 06:40 59.80609 11.33864 13617 ft 351 kts 168°
2026-05-08 06:41 59.78212 11.35013 14239 ft 355 kts 168°
2026-05-08 06:41 59.75794 11.36170 14815 ft 359 kts 168°
2026-05-08 06:41 59.73354 11.37337 15392 ft 362 kts 168°
2026-05-08 06:41 59.70892 11.38513 15957 ft 366 kts 168°
2026-05-08 06:42 59.68407 11.39698 16513 ft 369 kts 168°
2026-05-08 06:42 59.65890 11.40896 17058 ft 373 kts 168°
2026-05-08 06:42 59.63352 11.42102 17612 ft 377 kts 168°
2026-05-08 06:42 59.60791 11.43316 18156 ft 381 kts 168°
2026-05-08 06:43 59.58227 11.44530 18670 ft 384 kts 168°
2026-05-08 06:43 59.55619 11.45764 19166 ft 386 kts 168°
2026-05-08 06:43 59.53001 11.47001 19701 ft 388 kts 168°
2026-05-08 06:43 59.50370 11.48242 20209 ft 390 kts 168°
2026-05-08 06:44 59.47728 11.49486 20686 ft 392 kts 168°
2026-05-08 06:44 59.45060 11.50739 21165 ft 395 kts 168°
2026-05-08 06:44 59.42380 11.51996 21651 ft 397 kts 168°
2026-05-08 06:44 59.39684 11.53259 22130 ft 399 kts 168°
2026-05-08 06:45 59.37895 11.54096 22434 ft 400 kts 168°
2026-05-08 06:45 59.35179 11.55364 22915 ft 402 kts 168°
2026-05-08 06:45 59.32454 11.56635 23385 ft 403 kts 168°
2026-05-08 06:45 59.29713 11.57911 23813 ft 406 kts 168°
2026-05-08 06:46 59.26954 11.59193 24165 ft 408 kts 168°
2026-05-08 06:46 59.24180 11.60480 24505 ft 411 kts 168°
2026-05-08 06:46 59.21388 11.61773 24845 ft 413 kts 168°
2026-05-08 06:46 59.18582 11.63070 25148 ft 416 kts 168°
2026-05-08 06:47 59.15759 11.64374 25462 ft 418 kts 168°
2026-05-08 06:47 59.12912 11.65686 25795 ft 420 kts 168°
2026-05-08 06:47 59.10061 11.66998 26122 ft 422 kts 168°
2026-05-08 06:47 59.07195 11.68314 26431 ft 424 kts 168°
2026-05-08 06:48 59.04352 11.69619 26772 ft 426 kts 168°
2026-05-08 06:48 59.01465 11.70940 27089 ft 427 kts 168°
2026-05-08 06:48 58.98563 11.72266 27377 ft 430 kts 168°
2026-05-08 06:48 58.95645 11.73597 27652 ft 432 kts 168°
2026-05-08 06:49 58.92714 11.74931 27937 ft 434 kts 168°
2026-05-08 06:49 58.89767 11.76271 28224 ft 436 kts 168°
2026-05-08 06:49 58.86804 11.77616 28503 ft 437 kts 168°
2026-05-08 06:49 58.83838 11.78959 28763 ft 439 kts 168°
2026-05-08 06:50 58.80852 11.80309 29025 ft 441 kts 168°
2026-05-08 06:50 58.77860 11.81659 29289 ft 443 kts 168°
2026-05-08 06:50 58.74851 11.83015 29549 ft 444 kts 168°
2026-05-08 06:50 58.71832 11.84373 29799 ft 446 kts 168°
2026-05-08 06:51 58.68803 11.85733 30077 ft 447 kts 168°
2026-05-08 06:51 58.65780 11.87088 30420 ft 446 kts 168°
2026-05-08 06:51 58.62802 11.88421 30762 ft 444 kts 168°
2026-05-08 06:51 58.59794 11.89765 31104 ft 442 kts 168°
2026-05-08 06:52 58.56796 11.91102 31401 ft 440 kts 168°
2026-05-08 06:52 58.53817 11.92428 31681 ft 440 kts 168°
2026-05-08 06:52 58.50834 11.93752 31974 ft 439 kts 168°
2026-05-08 06:52 58.47866 11.95069 32273 ft 437 kts 168°
2026-05-08 06:53 58.44904 11.96380 32560 ft 436 kts 167°
2026-05-08 06:53 58.41984 11.97671 32851 ft 435 kts 167°
2026-05-08 06:53 58.39040 11.98970 33115 ft 434 kts 167°
2026-05-08 06:53 58.36096 12.00267 33370 ft 433 kts 167°
2026-05-08 06:54 58.33155 12.01560 33640 ft 432 kts 167°
2026-05-08 06:54 58.30231 12.02844 33893 ft 431 kts 167°
2026-05-08 06:54 58.27312 12.04124 34160 ft 430 kts 167°
2026-05-08 06:54 58.24405 12.05457 34373 ft 430 kts 164°
2026-05-08 06:55 58.21589 12.07399 34508 ft 431 kts 158°
2026-05-08 06:55 58.18828 12.09640 34657 ft 432 kts 158°
2026-05-08 06:55 58.16074 12.11920 34814 ft 432 kts 157°
2026-05-08 06:55 58.13310 12.14207 34977 ft 433 kts 158°
2026-05-08 06:56 58.10577 12.16451 35124 ft 433 kts 158°
2026-05-08 06:56 58.07806 12.18704 35238 ft 434 kts 158°
2026-05-08 06:56 58.02201 12.23212 35271 ft 439 kts 158°
2026-05-08 06:57 57.96540 12.27724 35275 ft 444 kts 158°
2026-05-08 06:57 57.90856 12.32236 35252 ft 447 kts 158°
2026-05-08 06:58 57.85099 12.36790 35258 ft 449 kts 158°
2026-05-08 06:58 57.79336 12.41335 35244 ft 450 kts 158°
2026-05-08 06:59 57.73552 12.45881 35238 ft 449 kts 158°
2026-05-08 06:59 57.67800 12.50386 35238 ft 448 kts 158°
2026-05-08 07:00 57.62060 12.54866 35275 ft 446 kts 158°
2026-05-08 07:00 57.56333 12.59320 35271 ft 445 kts 158°
2026-05-08 07:01 57.50655 12.63721 35267 ft 444 kts 158°
2026-05-08 07:01 57.44945 12.68132 35258 ft 443 kts 157°
2026-05-08 07:02 57.39253 12.72514 35274 ft 443 kts 157°
2026-05-08 07:02 57.33555 12.76886 35275 ft 443 kts 157°
2026-05-08 07:03 57.27883 12.81224 35275 ft 443 kts 157°
2026-05-08 07:03 57.22173 12.85575 35275 ft 443 kts 157°
2026-05-08 07:04 57.16461 12.89915 35276 ft 444 kts 157°
2026-05-08 07:04 57.10775 12.94219 35273 ft 444 kts 157°
2026-05-08 07:05 57.05048 12.98541 35272 ft 445 kts 157°
2026-05-08 07:05 56.99312 13.02854 35269 ft 445 kts 157°
2026-05-08 07:06 56.93575 13.07153 35267 ft 446 kts 156°
2026-05-08 07:06 56.87825 13.11449 35271 ft 446 kts 156°
2026-05-08 07:07 56.82071 13.15734 35276 ft 447 kts 156°
2026-05-08 07:07 56.76336 13.19989 35275 ft 447 kts 157°
2026-05-08 07:08 56.70563 13.24259 35274 ft 447 kts 157°
2026-05-08 07:08 56.64783 13.28520 35272 ft 448 kts 156°
2026-05-08 07:09 56.59005 13.32765 35277 ft 448 kts 156°
2026-05-08 07:09 56.53259 13.36973 35271 ft 448 kts 157°
2026-05-08 07:10 56.47477 13.41193 35266 ft 448 kts 156°
2026-05-08 07:10 56.41690 13.45403 35271 ft 448 kts 156°
2026-05-08 07:11 56.35898 13.49603 35281 ft 449 kts 156°
2026-05-08 07:11 56.30096 13.53797 35277 ft 449 kts 156°
2026-05-08 07:12 56.24285 13.57982 35270 ft 450 kts 156°
2026-05-08 07:12 56.18474 13.62154 35276 ft 450 kts 156°
2026-05-08 07:13 56.12683 13.66299 35274 ft 450 kts 156°
2026-05-08 07:13 56.06855 13.70456 35274 ft 450 kts 156°
2026-05-08 07:14 56.01029 13.74598 35281 ft 451 kts 156°
2026-05-08 07:14 55.95194 13.78734 35275 ft 451 kts 156°